Location: Dzierzno
(50.6159°N, 19.2852°E)
Time: 19:56:19
(UTC+00:00)

SKYMED 2 - Pass Details

Date: 18 November 2025
Orbit: 621 x 623 km, 97.9° (Epoch: 05 December)

Event Time Altitude Azimuth Distance (km) Brightness Sun altitude
Exits shadow 16:26:11 13° 30° (NNE) 1,815 5.6 -14.6°
Maximum altitude 16:29:48 40° 98° (E) 929 4.0 -15.1°
Drops below altitude 10° 16:33:52 10° 168° (SSE) 1,987 6.2 -15.8°
Sets 16:36:09 0° 176° (S) 2,888 7.1 -16.1°
